DAL13 SAVC-SABE

Flight info

Callsign DAL13
Flight time 1h 34m
Altitude 37000
Route GATUD2G GATUD UP664 TRE UT693 BCA UW22 VALOS VALOS9Q
Aircraft B738/M-SDE2E3FGHIRWXY/LB1

Departure

Time 2026-05-07 22:05
Airport General Enrique Mosconi International Airport (SAVC)

Arrival

Time 2026-05-07 23:40
Airport Aeroparque Jorge Newbery (SABE)
Time Latitude Longitude Altitude Speed Heading
2026-05-07 21:52 -45.78915 -67.46934 177 ft 0 kts 203°
2026-05-07 21:58 -45.78914 -67.46934 177 ft 0 kts 204°
2026-05-07 21:59 -45.78901 -67.46929 176 ft 2 kts 166°
2026-05-07 21:59 -45.78888 -67.46940 176 ft 2 kts 128°
2026-05-07 21:59 -45.78882 -67.46959 177 ft 1 kts 91°
2026-05-07 21:59 -45.78882 -67.46967 177 ft 1 kts 81°
2026-05-07 22:00 -45.78883 -67.46972 177 ft 0 kts 84°
2026-05-07 22:01 -45.78882 -67.46967 177 ft 3 kts 84°
2026-05-07 22:01 -45.78875 -67.46867 175 ft 15 kts 82°
2026-05-07 22:02 -45.78849 -67.46809 173 ft 10 kts 41°
2026-05-07 22:02 -45.78798 -67.46788 172 ft 3 kts 348°
2026-05-07 22:02 -45.78773 -67.46793 171 ft 7 kts 357°
2026-05-07 22:02 -45.78723 -67.46680 166 ft 21 kts 78°
2026-05-07 22:03 -45.78693 -67.46466 160 ft 22 kts 78°
2026-05-07 22:03 -45.78659 -67.46190 151 ft 33 kts 80°
2026-05-07 22:03 -45.78612 -67.45811 140 ft 41 kts 79°
2026-05-07 22:03 -45.78558 -67.45421 127 ft 38 kts 80°
2026-05-07 22:04 -45.78507 -67.45059 115 ft 34 kts 78°
2026-05-07 22:04 -45.78430 -67.44795 108 ft 25 kts 42°
2026-05-07 22:04 -45.78303 -67.44813 107 ft 15 kts 278°
2026-05-07 22:04 -45.78325 -67.44959 112 ft 31 kts 259°
2026-05-07 22:05 -45.78422 -67.45660 133 ft 107 kts 258°
2026-05-07 22:05 -45.78566 -67.46995 259 ft 156 kts 259°
2026-05-07 22:05 -45.78677 -67.48480 1112 ft 146 kts 255°
2026-05-07 22:05 -45.78920 -67.49811 1783 ft 139 kts 247°
2026-05-07 22:06 -45.79321 -67.51078 2273 ft 142 kts 225°
2026-05-07 22:06 -45.80067 -67.52054 2716 ft 151 kts 223°
2026-05-07 22:06 -45.80591 -67.53449 3061 ft 172 kts 243°
2026-05-07 22:06 -45.81072 -67.55092 3442 ft 184 kts 239°
2026-05-07 22:07 -45.81628 -67.56816 3940 ft 190 kts 239°
2026-05-07 22:07 -45.82184 -67.58549 4466 ft 194 kts 239°
2026-05-07 22:07 -45.82711 -67.60346 5004 ft 199 kts 247°
2026-05-07 22:07 -45.82924 -67.62334 5537 ft 206 kts 259°
2026-05-07 22:08 -45.82871 -67.64423 6075 ft 213 kts 270°
2026-05-07 22:08 -45.82442 -67.66505 6568 ft 224 kts 286°
2026-05-07 22:08 -45.81647 -67.68493 6911 ft 246 kts 300°
2026-05-07 22:08 -45.80363 -67.70285 7449 ft 268 kts 320°
2026-05-07 22:09 -45.78707 -67.71538 8408 ft 270 kts 336°
2026-05-07 22:09 -45.76879 -67.72219 9227 ft 275 kts 346°
2026-05-07 22:09 -45.75019 -67.72742 10143 ft 271 kts 346°
2026-05-07 22:09 -45.73180 -67.73235 10971 ft 272 kts 354°
2026-05-07 22:10 -45.71331 -67.72917 11736 ft 274 kts 21°
2026-05-07 22:10 -45.69656 -67.71518 12203 ft 288 kts 36°
2026-05-07 22:10 -45.67907 -67.69769 12362 ft 315 kts 34°
2026-05-07 22:10 -45.66039 -67.67996 12920 ft 325 kts 33°
2026-05-07 22:11 -45.64155 -67.66192 13562 ft 332 kts 34°
2026-05-07 22:11 -45.51466 -67.53972 17170 ft 339 kts 33°
2026-05-07 22:11 -45.35414 -67.38592 19224 ft 354 kts 32°
2026-05-07 22:11 -45.18457 -67.22490 20621 ft 370 kts 32°
2026-05-07 22:12 -45.00888 -67.05930 22298 ft 383 kts 32°
2026-05-07 22:12 -44.83273 -66.89425 23973 ft 394 kts 32°
2026-05-07 22:12 -44.64616 -66.72114 25341 ft 402 kts 32°
2026-05-07 22:12 -44.45573 -66.54584 26510 ft 412 kts 32°
2026-05-07 22:13 -44.26025 -66.36689 27448 ft 422 kts 33°
2026-05-07 22:13 -44.06397 -66.18133 27912 ft 433 kts 38°
2026-05-07 22:13 -43.89488 -65.93778 28457 ft 439 kts 59°
2026-05-07 22:13 -43.77642 -65.64077 29348 ft 442 kts 68°
2026-05-07 22:14 -43.68881 -65.41495 29883 ft 454 kts 58°
2026-05-07 22:14 -43.66779 -65.38157 30061 ft 463 kts 45°
2026-05-07 22:14 -43.64248 -65.35418 30303 ft 469 kts 34°
2026-05-07 22:14 -43.61398 -65.33221 30591 ft 471 kts 26°
2026-05-07 22:15 -43.58446 -65.31258 30834 ft 474 kts 25°
2026-05-07 22:15 -43.55462 -65.29298 31147 ft 474 kts 25°
2026-05-07 22:15 -43.52479 -65.27317 31344 ft 478 kts 26°
2026-05-07 22:15 -43.49468 -65.25270 31663 ft 478 kts 26°
2026-05-07 22:16 -43.46518 -65.23267 31962 ft 479 kts 26°
2026-05-07 22:16 -43.43533 -65.21197 32157 ft 482 kts 28°
2026-05-07 22:16 -43.40546 -65.19030 32449 ft 482 kts 28°
2026-05-07 22:16 -43.37595 -65.16875 32699 ft 483 kts 28°
2026-05-07 22:17 -43.34603 -65.14723 32939 ft 485 kts 28°
2026-05-07 22:17 -43.31596 -65.12590 33172 ft 486 kts 28°
2026-05-07 22:17 -43.28578 -65.10464 33412 ft 487 kts 27°
2026-05-07 22:17 -43.25561 -65.08343 33609 ft 489 kts 28°
2026-05-07 22:18 -43.22553 -65.06230 33836 ft 490 kts 28°
2026-05-07 22:18 -43.16478 -65.01984 34239 ft 493 kts 27°
2026-05-07 22:18 -43.13472 -64.99892 34457 ft 494 kts 27°
2026-05-07 22:19 -43.10449 -64.97792 34647 ft 496 kts 27°
2026-05-07 22:19 -43.07407 -64.95680 34931 ft 494 kts 27°
2026-05-07 22:19 -43.04344 -64.93558 35259 ft 492 kts 27°
2026-05-07 22:19 -43.01308 -64.91457 35527 ft 491 kts 27°
2026-05-07 22:20 -42.98250 -64.89344 35812 ft 490 kts 27°
2026-05-07 22:20 -42.95214 -64.87248 36101 ft 488 kts 27°
2026-05-07 22:20 -42.92169 -64.85149 36342 ft 487 kts 27°
2026-05-07 22:20 -42.89160 -64.83076 36576 ft 487 kts 27°
2026-05-07 22:21 -42.86151 -64.81005 36801 ft 486 kts 27°
2026-05-07 22:21 -42.80097 -64.76849 36858 ft 487 kts 27°
2026-05-07 22:22 -42.74057 -64.72711 36858 ft 482 kts 27°
2026-05-07 22:22 -42.68055 -64.68607 36858 ft 481 kts 27°
2026-05-07 22:23 -42.62047 -64.64509 36858 ft 481 kts 27°
2026-05-07 22:23 -42.56059 -64.60432 36858 ft 481 kts 27°
2026-05-07 22:24 -42.50087 -64.56377 36857 ft 479 kts 27°
2026-05-07 22:24 -42.44143 -64.52348 36857 ft 477 kts 27°
2026-05-07 22:25 -42.38237 -64.48354 36858 ft 476 kts 27°
2026-05-07 22:25 -42.32272 -64.44327 36858 ft 476 kts 27°
2026-05-07 22:26 -42.26372 -64.40355 36858 ft 475 kts 27°
2026-05-07 22:26 -42.20478 -64.36393 36858 ft 473 kts 27°
2026-05-07 22:27 -42.14561 -64.32426 36858 ft 473 kts 26°
2026-05-07 22:27 -42.08687 -64.28496 36857 ft 472 kts 26°
2026-05-07 22:28 -42.02808 -64.24568 36850 ft 472 kts 26°
2026-05-07 22:28 -41.96906 -64.20636 36840 ft 472 kts 26°
2026-05-07 22:29 -41.91013 -64.16717 36856 ft 472 kts 26°
2026-05-07 22:29 -41.85109 -64.12800 36826 ft 473 kts 26°
2026-05-07 22:30 -41.79208 -64.08894 36782 ft 473 kts 26°
2026-05-07 22:30 -41.73295 -64.04985 36750 ft 472 kts 26°
2026-05-07 22:31 -41.67397 -64.01094 36749 ft 472 kts 26°
2026-05-07 22:31 -41.61538 -63.97239 36749 ft 471 kts 26°
2026-05-07 22:32 -41.55679 -63.93391 36749 ft 468 kts 26°
2026-05-07 22:32 -41.49813 -63.89545 36750 ft 468 kts 26°
2026-05-07 22:33 -41.43996 -63.85741 36750 ft 467 kts 26°
2026-05-07 22:33 -41.38169 -63.81937 36750 ft 467 kts 26°
2026-05-07 22:34 -41.32317 -63.78123 36749 ft 466 kts 25°
2026-05-07 22:34 -41.26541 -63.74368 36750 ft 466 kts 25°
2026-05-07 22:35 -41.20710 -63.70582 36749 ft 465 kts 25°
2026-05-07 22:35 -41.14861 -63.66797 36750 ft 465 kts 25°
2026-05-07 22:36 -41.09071 -63.63054 36750 ft 465 kts 25°
2026-05-07 22:36 -41.03262 -63.59306 36749 ft 464 kts 25°
2026-05-07 22:37 -40.97518 -63.55417 36750 ft 463 kts 27°
2026-05-07 22:37 -40.91708 -63.51679 36750 ft 463 kts 25°
2026-05-07 22:38 -40.85901 -63.47962 36749 ft 463 kts 26°
2026-05-07 22:38 -40.80119 -63.44255 36749 ft 463 kts 26°
2026-05-07 22:39 -40.74294 -63.40538 36749 ft 463 kts 26°
2026-05-07 22:39 -40.68492 -63.36839 36749 ft 463 kts 26°
2026-05-07 22:40 -40.62722 -63.33168 36749 ft 463 kts 25°
2026-05-07 22:40 -40.56920 -63.29481 36749 ft 462 kts 25°
2026-05-07 22:41 -40.47397 -63.23452 36750 ft 461 kts 25°
2026-05-07 22:41 -40.24400 -63.08946 36758 ft 459 kts 25°
2026-05-07 22:42 -40.01398 -62.94541 36747 ft 455 kts 24°
2026-05-07 22:42 -39.78915 -62.80509 36741 ft 450 kts 24°
2026-05-07 22:43 -39.56759 -62.66964 36790 ft 447 kts 23°
2026-05-07 22:43 -39.34799 -62.53507 36760 ft 446 kts 24°
2026-05-07 22:44 -39.12610 -62.40055 36790 ft 446 kts 23°
2026-05-07 22:44 -38.90871 -62.27016 36760 ft 444 kts 23°
2026-05-07 22:45 -38.69173 -62.13814 36789 ft 442 kts 24°
2026-05-07 22:45 -38.58921 -62.05470 36778 ft 445 kts 36°
2026-05-07 22:45 -38.49497 -61.95087 36764 ft 444 kts 37°
2026-05-07 22:46 -38.36045 -61.82499 36776 ft 432 kts 28°
2026-05-07 22:46 -38.30956 -61.78310 36777 ft 436 kts 31°
2026-05-07 22:47 -38.25941 -61.73916 36777 ft 438 kts 31°
2026-05-07 22:47 -38.20954 -61.69518 36777 ft 437 kts 31°
2026-05-07 22:48 -38.15939 -61.65121 36776 ft 436 kts 30°
2026-05-07 22:48 -38.10927 -61.60768 36777 ft 436 kts 31°
2026-05-07 22:49 -38.05965 -61.56362 36777 ft 436 kts 31°
2026-05-07 22:49 -38.00974 -61.51937 36777 ft 435 kts 31°
2026-05-07 22:50 -37.95995 -61.47522 36777 ft 434 kts 31°
2026-05-07 22:50 -37.91059 -61.43141 36777 ft 432 kts 31°
2026-05-07 22:51 -37.86099 -61.38769 36777 ft 435 kts 30°
2026-05-07 22:51 -37.81100 -61.34371 36777 ft 440 kts 30°
2026-05-07 22:52 -37.76061 -61.29912 36776 ft 438 kts 30°
2026-05-07 22:52 -37.71102 -61.25558 36749 ft 435 kts 29°
2026-05-07 22:53 -37.66163 -61.21225 36750 ft 433 kts 29°
2026-05-07 22:53 -37.61179 -61.16851 36744 ft 433 kts 29°
2026-05-07 22:54 -37.56197 -61.12531 36733 ft 431 kts 29°
2026-05-07 22:54 -37.51280 -61.08256 36724 ft 429 kts 29°
2026-05-07 22:55 -37.46390 -61.03981 36715 ft 428 kts 29°
2026-05-07 22:55 -37.41496 -60.99714 36705 ft 428 kts 28°
2026-05-07 22:56 -37.36570 -60.95439 36697 ft 426 kts 28°
2026-05-07 22:56 -37.31726 -60.91217 36696 ft 425 kts 28°
2026-05-07 22:57 -37.26843 -60.86976 36696 ft 425 kts 28°
2026-05-07 22:57 -37.21973 -60.82772 36695 ft 424 kts 28°
2026-05-07 22:58 -37.17110 -60.78575 36696 ft 423 kts 28°
2026-05-07 22:58 -37.12260 -60.74393 36695 ft 423 kts 28°
2026-05-07 22:59 -37.07442 -60.70221 37144 ft 410 kts 28°
2026-05-07 22:59 -37.05115 -60.68168 37569 ft 410 kts 34°
2026-05-07 22:59 -37.02774 -60.66123 38108 ft 413 kts 35°
2026-05-07 22:59 -37.00396 -60.64081 38642 ft 418 kts 34°
2026-05-07 23:00 -36.97981 -60.62029 38813 ft 431 kts 34°
2026-05-07 23:00 -36.95427 -60.59833 38832 ft 445 kts 29°
2026-05-07 23:00 -36.92869 -60.57623 38346 ft 454 kts 29°
2026-05-07 23:00 -36.90270 -60.55385 37814 ft 450 kts 29°
2026-05-07 23:01 -36.87705 -60.53172 37289 ft 442 kts 28°
2026-05-07 23:01 -36.85197 -60.50995 36785 ft 434 kts 28°
2026-05-07 23:01 -36.82806 -60.48900 36695 ft 417 kts 28°
2026-05-07 23:01 -36.80420 -60.46865 36698 ft 406 kts 26°
2026-05-07 23:02 -36.78078 -60.44938 36689 ft 411 kts 27°
2026-05-07 23:02 -36.73261 -60.40958 36699 ft 419 kts 26°
2026-05-07 23:03 -36.68394 -60.36968 36694 ft 418 kts 27°
2026-05-07 23:03 -36.63581 -60.32846 36685 ft 416 kts 27°
2026-05-07 23:04 -36.58847 -60.28730 36699 ft 415 kts 27°
2026-05-07 23:04 -36.54107 -60.24673 36703 ft 415 kts 26°
2026-05-07 23:05 -36.49287 -60.20707 36690 ft 414 kts 26°
2026-05-07 23:05 -36.44483 -60.16757 36681 ft 413 kts 25°
2026-05-07 23:06 -36.39703 -60.12820 36664 ft 412 kts 26°
2026-05-07 23:06 -36.34978 -60.08844 36659 ft 411 kts 26°
2026-05-07 23:07 -36.30201 -60.04883 36652 ft 411 kts 26°
2026-05-07 23:07 -36.25444 -60.00918 36631 ft 411 kts 26°
2026-05-07 23:08 -36.20717 -59.97019 36640 ft 409 kts 26°
2026-05-07 23:08 -36.16018 -59.92995 36631 ft 411 kts 27°
2026-05-07 23:09 -36.11332 -59.88910 36647 ft 410 kts 27°
2026-05-07 23:09 -36.06644 -59.84889 36641 ft 411 kts 26°
2026-05-07 23:10 -36.01917 -59.80883 36638 ft 410 kts 26°
2026-05-07 23:10 -35.97190 -59.77028 36668 ft 408 kts 25°
2026-05-07 23:11 -35.92400 -59.73205 36668 ft 409 kts 25°
2026-05-07 23:11 -35.88672 -59.69961 36582 ft 416 kts 30°
2026-05-07 23:11 -35.86292 -59.67498 36270 ft 419 kts 34°
2026-05-07 23:12 -35.84273 -59.64951 36027 ft 418 kts 39°
2026-05-07 23:12 -35.82468 -59.62119 35779 ft 418 kts 45°
2026-05-07 23:12 -35.80893 -59.59112 35532 ft 420 kts 48°
2026-05-07 23:12 -35.79377 -59.55984 35281 ft 418 kts 48°
2026-05-07 23:13 -35.77909 -59.52922 35026 ft 412 kts 48°
2026-05-07 23:13 -35.76483 -59.49917 34777 ft 407 kts 48°
2026-05-07 23:13 -35.75074 -59.46922 34527 ft 403 kts 48°
2026-05-07 23:13 -35.73657 -59.43926 34276 ft 400 kts 47°
2026-05-07 23:14 -35.72222 -59.41047 34029 ft 397 kts 46°
2026-05-07 23:14 -35.70737 -59.38131 33775 ft 396 kts 46°
2026-05-07 23:14 -35.69289 -59.35230 33524 ft 399 kts 46°
2026-05-07 23:14 -35.67853 -59.32295 33274 ft 401 kts 46°
2026-05-07 23:15 -35.66459 -59.29431 33030 ft 403 kts 47°
2026-05-07 23:15 -35.65011 -59.26450 32778 ft 403 kts 47°
2026-05-07 23:15 -35.63596 -59.23523 32408 ft 397 kts 47°
2026-05-07 23:15 -35.62191 -59.20609 31980 ft 388 kts 46°
2026-05-07 23:16 -35.60835 -59.17819 31593 ft 384 kts 46°
2026-05-07 23:16 -35.59433 -59.14988 31238 ft 388 kts 46°
2026-05-07 23:16 -35.58026 -59.12135 30830 ft 387 kts 47°
2026-05-07 23:16 -35.56672 -59.09323 30354 ft 381 kts 47°
2026-05-07 23:17 -35.55340 -59.06551 29875 ft 376 kts 47°
2026-05-07 23:17 -35.53989 -59.03796 29393 ft 383 kts 46°
2026-05-07 23:17 -35.52588 -59.00964 28883 ft 381 kts 47°
2026-05-07 23:17 -35.51252 -58.98223 28394 ft 375 kts 47°
2026-05-07 23:18 -35.49926 -58.95468 27910 ft 376 kts 47°
2026-05-07 23:18 -35.48571 -58.92670 27406 ft 382 kts 48°
2026-05-07 23:18 -35.47218 -58.89880 26895 ft 376 kts 48°
2026-05-07 23:18 -35.45895 -58.87159 26402 ft 370 kts 48°
2026-05-07 23:19 -35.44573 -58.84447 25910 ft 371 kts 48°
2026-05-07 23:19 -35.43225 -58.81726 25408 ft 376 kts 48°
2026-05-07 23:19 -35.41871 -58.78994 24898 ft 371 kts 48°
2026-05-07 23:19 -35.40554 -58.76323 24400 ft 366 kts 48°
2026-05-07 23:20 -35.39229 -58.73636 23899 ft 364 kts 49°
2026-05-07 23:20 -35.37913 -58.70979 23401 ft 369 kts 49°
2026-05-07 23:20 -35.36580 -58.68297 22892 ft 365 kts 49°
2026-05-07 23:20 -35.35276 -58.65665 22385 ft 360 kts 49°
2026-05-07 23:21 -35.33958 -58.63041 21893 ft 361 kts 49°
2026-05-07 23:21 -35.32626 -58.60413 21362 ft 365 kts 49°
2026-05-07 23:21 -35.31311 -58.57762 20863 ft 361 kts 50°
2026-05-07 23:21 -35.30058 -58.55116 20336 ft 358 kts 51°
2026-05-07 23:22 -35.28831 -58.52482 19841 ft 362 kts 52°
2026-05-07 23:22 -35.27537 -58.49786 19308 ft 362 kts 50°
2026-05-07 23:22 -35.26226 -58.47165 18788 ft 358 kts 50°
2026-05-07 23:22 -35.24907 -58.44586 18355 ft 352 kts 50°
2026-05-07 23:23 -35.23606 -58.42014 18050 ft 358 kts 50°
2026-05-07 23:23 -35.22295 -58.39397 17642 ft 360 kts 51°
2026-05-07 23:23 -35.21016 -58.36805 17152 ft 356 kts 52°
2026-05-07 23:23 -35.19742 -58.34216 16644 ft 352 kts 52°
2026-05-07 23:24 -35.18474 -58.31674 16139 ft 348 kts 51°
2026-05-07 23:24 -35.17194 -58.29160 15643 ft 344 kts 52°
2026-05-07 23:24 -35.15937 -58.26651 15152 ft 341 kts 53°
2026-05-07 23:24 -35.14717 -58.24203 14661 ft 341 kts 53°
2026-05-07 23:25 -35.13450 -58.21705 14178 ft 343 kts 54°
2026-05-07 23:25 -35.12231 -58.19244 13693 ft 340 kts 54°
2026-05-07 23:25 -35.11001 -58.16759 13209 ft 336 kts 56°
2026-05-07 23:25 -35.09845 -58.14320 12736 ft 333 kts 57°
2026-05-07 23:26 -35.08676 -58.11879 12272 ft 329 kts 56°
2026-05-07 23:26 -35.07502 -58.09489 11800 ft 332 kts 57°
2026-05-07 23:26 -35.06295 -58.07046 11326 ft 330 kts 57°
2026-05-07 23:26 -35.05123 -58.04680 10861 ft 327 kts 57°
2026-05-07 23:27 -35.03097 -58.00782 10151 ft 320 kts 57°
2026-05-07 23:27 -35.01591 -57.97792 9898 ft 298 kts 57°
2026-05-07 23:27 -35.00519 -57.95659 9751 ft 291 kts 56°
2026-05-07 23:28 -34.99219 -57.93739 9401 ft 303 kts 36°
2026-05-07 23:28 -34.97384 -57.92695 9039 ft 291 kts
2026-05-07 23:28 -34.95413 -57.92781 8690 ft 280 kts 345°
2026-05-07 23:28 -34.93630 -57.93550 8320 ft 262 kts 324°
2026-05-07 23:29 -34.92231 -57.94850 8015 ft 254 kts 317°
2026-05-07 23:29 -34.90838 -57.96209 7564 ft 258 kts 319°
2026-05-07 23:29 -34.89417 -57.97546 7195 ft 251 kts 319°
2026-05-07 23:29 -34.88065 -57.98827 6876 ft 247 kts 318°
2026-05-07 23:30 -34.86660 -58.00162 6557 ft 258 kts 318°
2026-05-07 23:30 -34.85242 -58.01494 6220 ft 256 kts 318°
2026-05-07 23:30 -34.83830 -58.02821 5881 ft 254 kts 317°
2026-05-07 23:30 -34.82452 -58.04124 5562 ft 251 kts 317°
2026-05-07 23:31 -34.81064 -58.05432 5238 ft 249 kts 317°
2026-05-07 23:31 -34.79710 -58.06705 4921 ft 246 kts 316°
2026-05-07 23:31 -34.78357 -58.07985 4609 ft 243 kts 316°
2026-05-07 23:31 -34.77015 -58.09256 4290 ft 240 kts 316°
2026-05-07 23:32 -34.75697 -58.10481 4016 ft 236 kts 316°
2026-05-07 23:32 -34.74398 -58.11700 3930 ft 230 kts 315°
2026-05-07 23:32 -34.73165 -58.12864 3817 ft 221 kts 315°
2026-05-07 23:32 -34.71987 -58.13965 3620 ft 202 kts 315°
2026-05-07 23:33 -34.70935 -58.14944 3549 ft 176 kts 314°
2026-05-07 23:33 -34.70139 -58.15928 3541 ft 153 kts 295°
2026-05-07 23:33 -34.69561 -58.17035 3496 ft 157 kts 297°
2026-05-07 23:33 -34.68863 -58.18080 3328 ft 156 kts 301°
2026-05-07 23:34 -34.68202 -58.19094 3162 ft 152 kts 298°
2026-05-07 23:34 -34.67587 -58.20139 3078 ft 148 kts 296°
2026-05-07 23:34 -34.67033 -58.21124 3031 ft 134 kts 295°
2026-05-07 23:34 -34.66513 -58.22071 3000 ft 133 kts 295°
2026-05-07 23:35 -34.65999 -58.22993 2999 ft 133 kts 295°
2026-05-07 23:35 -34.65474 -58.23931 2997 ft 132 kts 295°
2026-05-07 23:35 -34.64952 -58.24866 2989 ft 133 kts 295°
2026-05-07 23:35 -34.64426 -58.25816 2841 ft 135 kts 295°
2026-05-07 23:36 -34.63904 -58.26760 2673 ft 134 kts 295°
2026-05-07 23:36 -34.63380 -58.27716 2496 ft 134 kts 296°
2026-05-07 23:36 -34.62868 -58.28652 2338 ft 135 kts 296°
2026-05-07 23:36 -34.62352 -58.29607 2140 ft 136 kts 297°
2026-05-07 23:37 -34.61816 -58.30567 1959 ft 137 kts 297°
2026-05-07 23:37 -34.61300 -58.31545 1761 ft 136 kts 297°
2026-05-07 23:37 -34.60761 -58.32494 1592 ft 137 kts 299°
2026-05-07 23:37 -34.60237 -58.33474 1398 ft 141 kts 299°
2026-05-07 23:38 -34.59721 -58.34520 1214 ft 144 kts 300°
2026-05-07 23:38 -34.59184 -58.35546 1026 ft 143 kts 301°
2026-05-07 23:38 -34.58632 -58.36559 835 ft 143 kts 302°
2026-05-07 23:38 -34.58078 -58.37568 642 ft 142 kts 302°
2026-05-07 23:39 -34.57534 -58.38566 445 ft 142 kts 298°
2026-05-07 23:39 -34.57014 -58.39588 258 ft 141 kts 301°
2026-05-07 23:39 -34.56466 -58.40601 68 ft 143 kts 302°
2026-05-07 23:39 -34.55963 -58.41512 27 ft 97 kts 303°
2026-05-07 23:40 -34.55710 -58.41962 27 ft 47 kts 303°
2026-05-07 23:40 -34.55540 -58.42272 27 ft 38 kts 305°
2026-05-07 23:40 -34.55409 -58.42489 27 ft 15 kts 323°
2026-05-07 23:40 -34.55358 -58.42449 27 ft 10 kts 89°
2026-05-07 23:41 -34.55370 -58.42376 27 ft 7 kts 111°
2026-05-07 23:41 -34.55396 -58.42327 27 ft 6 kts 127°
2026-05-07 23:41 -34.55420 -58.42288 27 ft 7 kts 127°
2026-05-07 23:41 -34.55468 -58.42212 27 ft 14 kts 127°
2026-05-07 23:42 -34.55536 -58.42102 27 ft 18 kts 127°
2026-05-07 23:42 -34.55614 -58.41974 27 ft 18 kts 123°
2026-05-07 23:42 -34.55682 -58.41848 27 ft 17 kts 123°
2026-05-07 23:42 -34.55749 -58.41721 27 ft 17 kts 118°
2026-05-07 23:43 -34.55805 -58.41584 27 ft 18 kts 116°
2026-05-07 23:43 -34.55861 -58.41450 27 ft 17 kts 117°
2026-05-07 23:43 -34.55901 -58.41322 27 ft 14 kts 73°
2026-05-07 23:43 -34.55827 -58.41302 27 ft 12 kts 306°
2026-05-07 23:44 -34.55798 -58.41349 27 ft 2 kts 335°
2026-05-07 23:44 -34.55784 -58.41342 27 ft 2 kts 39°
2026-05-07 23:44 -34.55769 -58.41329 27 ft 2 kts 34°
2026-05-07 23:44 -34.55763 -58.41324 27 ft 0 kts 34°